Погода в Безобразово

Россия / Калужская область     54°49′30″N   37°07′16″E
темп.,
°C
ветер,
м/с
пор.,
м/с
влажн.,
%
обл.,
%
осадки,
мм/ч
давл.,
гПа
погр.,
м
29 июля, чт
чт2900:00+17ююз499849 0.9 1009289
03:00+17зюз4109840 0.9 1008363
06:00+17з389799 0.0 1008355
09:00+21з47779 0.0 1008668
12:00+26зсз565559 0.0 10071568
15:00+27зсз4648100 0.0 10071892
18:00+23з2464100 0.0 100678
21:00+22зюз226651 0.0 100623
30 июля, пт
пт3000:00+19ююз227866 0.0 100611
03:00+18юз238665 0.4 100667
06:00+17с2496100 0.8 1006124
09:00+20юв128838 1.3 1006354
12:00+22з458168 1.4 1005665
15:00+25зсз566375 1.9 10051374
18:00+24зсз47644 0.7 1005834
21:00+19з376686 0.8 1005139
31 июля, сб
сб3100:00+17зюз357897 0.0 100690
03:00+15зюз38855 0.0 1006154
06:00+16зюз412750 0.0 1007328
09:00+21зюз613520 0.0 10071431
12:00+25з710384 0.0 10072305
15:00+26зюз710330 0.0 10072480
18:00+25зюз594140 0.0 10072152
21:00+19з23645 0.0 100842
1 августа, вс
вс100:00+16зюз34708 0.0 101069
03:00+15зюз23779 0.0 101141
06:00+16ююз237381 0.0 101159
09:00+23ю3555100 0.0 1010414
12:00+28ююз7104699 0.0 10091313
15:00+30ююз7113999 0.0 10072489
18:00+29ююз7124078 0.0 10062131
21:00+20з259299 2.1 100891
2 августа, пн
пн200:00+19зсз229635 0.1 100935
03:00+17з00945 0.1 100911
06:00+18ююз11914 0.0 100913
09:00+23ююв236955 0.0 1008429
12:00+28ю4751100 0.0 10061662
15:00+28юз5105699 0.9 10051535
18:00+28юз7114895 0.1 10031196
21:00+18юз118942 4.9 100311